Weather History for Bolton Field, OH

Change the Weather History Date:

Tuesday, May 21, 2013

  Actual Average Record
Temperature  
Mean Temperature 77 °F -  
Max Temperature 87 °F 70 °F 87 °F (2004)
Min Temperature 67 °F 53 °F 42 °F (1997)
Cooling Degree Days 12    
Growing Degree Days 27 (Base 50)    
Moisture  
Dew Point 62 °F    
Average Humidity 67    
Maximum Humidity 88    
Minimum Humidity 26    
Precipitation  
Precipitation 0.00 in - - ()
Sea Level Pressure  
Sea Level Pressure 29.89 in    
Wind  
Wind Speed 8 mph (South)    
Max Wind Speed 22 mph    
Max Gust Speed 29 mph    
Visibility 10 miles    
Events      
Averages and records for this station are not official NWS values.
T = Trace of Precipitation, MM = Missing Value Source: NWS Daily Summary

Daily Weather History Graph

Daily Weather History Graph

Search for Another Location

Airport:

Trip Planner

Search our weather history database for the weather conditions in past years. The results will help you decide how hot, cold, wet, or windy it might be!

Date:

Astronomy

May. 21, 2013 Rise Set
Actual Time 6:12 AM EDT 8:46 PM EDT
Civil Twilight 5:41 AM EDT 9:17 PM EDT
Nautical Twilight 5:02 AM EDT 9:56 PM EDT
Astronomical Twilight 4:19 AM EDT 10:40 PM EDT
Moon 4:59 PM EDT (5/21) 3:39 AM EDT (5/21)
Length of Visible Light 15h 36m
Length of Day
14h 34m
Waxing Gibbous, 84% of the Moon is Illuminated
May 21
Waxing Gibbous
May 25
Full
May 31
Last Quarter
Jun 8
New
Jun 16
First Quarter

Hourly Weather History & Observations

Time (EDT) Temp. Heat Index Dew Point Humidity Pressure Visibility Wind Dir Wind Speed Gust Speed Precip Events Conditions
12:15 AM 73.0 °F - 66.2 °F 79% 29.93 in 10.0 mi South 6.9 mph - N/A   Clear
12:35 AM 72.9 °F - 66.2 °F 80% 29.94 in 10.0 mi South 8.1 mph - N/A   Clear
12:55 AM 71.6 °F - 65.7 °F 81% 29.94 in 10.0 mi South 8.1 mph - N/A   Clear
1:15 AM 72.1 °F - 66.2 °F 82% 29.92 in 10.0 mi SSE 4.6 mph - N/A   Clear
1:35 AM 71.2 °F - 66.0 °F 84% 29.93 in 10.0 mi South 4.6 mph - N/A   Scattered Clouds
1:55 AM 70.3 °F - 65.7 °F 85% 29.92 in 10.0 mi SSE 4.6 mph - N/A   Scattered Clouds
2:15 AM 69.3 °F - 65.5 °F 88% 29.92 in 10.0 mi South 4.6 mph - N/A   Clear
2:35 AM 69.4 °F - 64.9 °F 86% 29.92 in 10.0 mi South 5.8 mph - N/A   Clear
2:55 AM 68.9 °F - 32.7 °F 26% 29.92 in 10.0 mi South 4.6 mph - N/A   Clear
3:15 AM 68.9 °F - 60.8 °F 75% 29.92 in 10.0 mi South 4.6 mph - N/A   Clear
3:35 AM 69.1 °F - 61.2 °F 76% 29.92 in 10.0 mi South 4.6 mph - N/A   Mostly Cloudy
3:55 AM 68.9 °F - 61.7 °F 78% 29.92 in 10.0 mi South 5.8 mph - N/A   Mostly Cloudy
4:15 AM 69.1 °F - 62.8 °F 80% 29.91 in 10.0 mi South 6.9 mph - N/A   Clear
4:35 AM 69.3 °F - 63.3 °F 81% 29.91 in 10.0 mi South 8.1 mph - N/A   Clear
4:55 AM 69.3 °F - 60.6 °F 74% 29.91 in 10.0 mi South 8.1 mph - N/A   Clear
5:15 AM 69.3 °F - 62.2 °F 78% 29.91 in 10.0 mi South 6.9 mph - N/A   Clear
5:35 AM 67.5 °F - 63.0 °F 85% 29.91 in 7.0 mi SSE 5.8 mph - N/A   Clear
5:55 AM 67.3 °F - 63.3 °F 87% 29.91 in 7.0 mi South 5.8 mph - N/A   Clear
6:15 AM 67.1 °F - 63.5 °F 88% 29.92 in 5.0 mi SSE 5.8 mph - N/A   Clear
6:35 AM 67.6 °F - 62.6 °F 84% 29.92 in 7.0 mi SSE 5.8 mph - N/A   Clear
6:55 AM 67.6 °F - 63.0 °F 85% 29.92 in 5.0 mi SSE 8.1 mph - N/A   Haze
7:15 AM 69.3 °F - 62.8 °F 80% 29.92 in 7.0 mi South 9.2 mph - N/A   Clear
7:50 AM 69.8 °F - 62.6 °F 78% 29.91 in 10.0 mi South 10.4 mph - N/A   Clear
9:55 AM 75.2 °F - 64.4 °F 69% 29.95 in 10.0 mi SW 13.8 mph 19.6 mph N/A   Clear
10:50 AM 78.8 °F - 60.8 °F 54% 29.96 in 10.0 mi WSW 16.1 mph 27.6 mph N/A   Clear
11:47 AM 80.6 °F 81.1 °F 59.0 °F 48% 29.92 in 10.0 mi South 10.4 mph 16.1 mph N/A   Clear
12:47 PM 82.4 °F 83.4 °F 62.6 °F 51% 29.89 in 10.0 mi SSE 12.7 mph - N/A   Clear
1:47 PM 84.2 °F 85.0 °F 62.6 °F 48% 29.88 in 10.0 mi South 16.1 mph - N/A   Clear
2:47 PM 84.2 °F 85.0 °F 62.6 °F 48% 29.87 in 10.0 mi South 17.3 mph 24.2 mph N/A   Clear
3:50 PM 87.8 °F 87.1 °F 59.0 °F 38% 29.86 in 10.0 mi SSW 21.9 mph 28.8 mph N/A   Scattered Clouds
4:50 PM 84.2 °F 84.4 °F 60.8 °F 45% 29.85 in 10.0 mi SW 17.3 mph 24.2 mph N/A   Mostly Cloudy
5:50 PM 84.2 °F 84.4 °F 60.8 °F 45% 29.84 in 10.0 mi SW 17.3 mph 24.2 mph N/A   Scattered Clouds
6:50 PM 82.4 °F 83.4 °F 62.6 °F 51% 29.84 in 10.0 mi SSW 12.7 mph - N/A   Scattered Clouds
7:35 PM 81.7 °F 82.4 °F 61.3 °F 50% 29.83 in 10.0 mi SW 9.2 mph - N/A   Clear
7:55 PM 81.5 °F 82.1 °F 60.6 °F 49% 29.83 in 10.0 mi SSW 16.1 mph - N/A   Scattered Clouds
8:15 PM 79.9 °F - 60.8 °F 52% 29.83 in 10.0 mi SSW 12.7 mph - N/A   Scattered Clouds
8:35 PM 78.4 °F - 60.8 °F 55% 29.84 in 10.0 mi SSW 9.2 mph - N/A   Scattered Clouds
8:55 PM 77.9 °F - 60.6 °F 55% 29.83 in 10.0 mi SSW 9.2 mph - N/A   Scattered Clouds
9:15 PM 76.5 °F - 60.6 °F 58% 29.83 in 10.0 mi South 6.9 mph - N/A   Clear
9:35 PM 75.2 °F - 60.4 °F 60% 29.83 in 10.0 mi South 4.6 mph - N/A   Scattered Clouds
9:55 PM 75.6 °F - 60.8 °F 60% 29.84 in 10.0 mi South 4.6 mph - N/A   Mostly Cloudy
10:15 PM 75.2 °F - 61.0 °F 61% 29.84 in 10.0 mi South 3.5 mph - N/A   Scattered Clouds
10:35 PM 73.4 °F - 63.0 °F 70% 29.85 in 10.0 mi South 5.8 mph - N/A   Scattered Clouds
10:55 PM 75.0 °F - 64.4 °F 69% 29.86 in 10.0 mi South 9.2 mph - N/A   Mostly Cloudy
11:15 PM 74.5 °F - 63.9 °F 69% 29.86 in 10.0 mi South 12.7 mph - N/A   Overcast
11:35 PM 72.9 °F - 62.2 °F 69% 29.87 in 10.0 mi South 15.0 mph 18.4 mph N/A   Mostly Cloudy
11:55 PM 70.9 °F - 60.8 °F 70% 29.86 in 10.0 mi South 12.7 mph - N/A   Scattered Clouds